Location: �terpigny
(49.8910°N, 2.9249°E)
Time: 03:36:27
(UTC+00:00)

Cosmos 332 Rocket - Pass Details

Date: 02 June 2022
Orbit: 681 x 703 km, 74.0° (Epoch: 06 July)

Event Time Altitude Azimuth Distance (km) Brightness Sun altitude
Exits shadow 00:11:19 30° 214° (SW) 1,205 4.5 -17.7°
Maximum altitude 00:13:38 75° 295° (WNW) 710 3.8 -17.7°
Drops below altitude 10° 00:18:27 10° 21° (NNE) 2,136 7.5 -17.6°
Sets 00:20:47 0° 23° (NNE) 3,058 8.6 -17.5°
